Printer-friendly version

IAU Minor Planet Center

Minor Planet Center

MPEC 2004-F46 : 2004 FM4

The following Minor Planet Electronic Circular may be linked-to from your own Web pages, but must not otherwise be redistributed electronically.


Read MPEC 2004-F45 Read MPEC 2004-F47


M.P.E.C. 2004-F46                                Issued 2004 Mar. 22, 01:39 UT

     The Minor Planet Electronic Circulars contain information on unusual
         minor planets and routine data on comets.  They are published
   on behalf of Commission 20 of the International Astronomical Union by the
          Minor Planet Center, Smithsonian Astrophysical Observatory,
                          Cambridge, MA 02138, U.S.A.

         Supported in part by the Steven and Michele Kirsch Foundation
             Prepared using the Tamkin Foundation Computer Network

                              MPC@CFA.HARVARD.EDU
          URL http://cfa-www.harvard.edu/iau/mpc.html  ISSN 1523-6714

                                   2004 FM4

Observations:
     K04F04M* C2004 03 19.34501 11 14 30.61 -04 03 36.9          19.1   EF046704
     K04F04M  C2004 03 19.35652 11 14 41.44 -04 02 59.9          18.8   EF046704
     K04F04M  C2004 03 19.36786 11 14 52.23 -04 02 22.3          18.6   EF046704
     K04F04M  C2004 03 19.37915 11 15 02.89 -04 01 45.1          18.8   EF046704
     K04F04M  C2004 03 19.39106 11 15 14.09 -04 01 06.5          18.5   EF046704
     K04F04M  C2004 03 20.27721 11 28 09.20 -03 19 18.8          18.8   EF046704
     K04F04M  C2004 03 20.28671 11 28 15.81 -03 18 55.7          19.1   EF046704
     K04F04M  C2004 03 20.28801 11 28 16.72 -03 18 51.6          18.7   EF046704
     K04F04M  C2004 03 20.29859 11 28 24.00 -03 18 25.9          19.4   EF046704
     K04F04M  C2004 03 20.29901 11 28 24.29 -03 18 24.9          19.2   EF046704
     K04F04M  C2004 03 20.30999 11 28 31.84 -03 17 57.7          19.4   EF046704
     K04F04M  C2004 03 20.31025 11 28 32.05 -03 17 57.0          18.8   EF046704
     K04F04M  C2004 03 20.32159 11 28 39.79 -03 17 28.6          19.5   EF046704
     K04F04M  C2004 03 20.32345 11 28 41.10 -03 17 24.2          19.2   EF046704
     K04F04M  C2004 03 20.33319 11 28 47.74 -03 17 00.5          19.4   EF046704
     K04F04M  C2004 03 21.95563 11 45 00.67 -02 23 34.8                 EF046J95
     K04F04M  C2004 03 21.96142 11 45 03.29 -02 23 26.1          19.3 R EF046J95
     K04F04M  C2004 03 21.96539 11 45 05.06 -02 23 19.4          19.5 R EF046J95

Observer details:
704 Lincoln Laboratory ETS, New Mexico.  Observers M. Blythe, F. Shelly,
    M. Bezpalko, R. Huber, L. Manguso, D. Torres, R. Kracke, M. McCleary,
    H. Stange, A. Milner.  Measurers J. Stuart, R. Sayer, J. Evans, J. Kommers.
    1.0-m f/2.15 reflector + CCD.
J95 Great Shefford.  Observer P. Birtwhistle.  0.30-m f/6.3 Schmidt-Cassegrain
    + CCD.

Orbital elements:
2004 FM4
Epoch 2004 July 14.0 TT = JDT 2453200.5                 MPC
M  56.04517              (2000.0)            P               Q
n   0.34641828     Peri.  288.99015     -0.42309628     -0.90607143
a   2.0078696      Node   186.04692     +0.84786027     -0.39399179
e   0.5894670      Incl.    2.67092     +0.31956611     -0.15428880
P   2.85           H   24.1           G   0.15           U   8
Residuals in seconds of arc
040319 704  0.7+  0.6+    040320 704  0.1+  0.5-    040320 704  0.1-  0.2+
040319 704  0.4-  0.3-    040320 704  0.3+  0.4+    040320 704  0.5+  0.0
040319 704  0.5+  0.0     040320 704  0.1+  0.2-    040320 704  0.0   0.3-
040319 704  0.2+  0.2+    040320 704  0.1+  0.2-    040321 J95  0.5-  0.5+
040319 704  0.6-  0.2-    040320 704  0.1+  0.2-    040321 J95  0.2+  0.2-
040320 704  0.5-  0.0     040320 704  0.6+  0.2-    040321 J95  0.4+  0.1+

Ephemeris:
2004 FM4                 a,e,i = 2.02, 0.59, 3                   q = 0.8237
Date    TT    R. A. (2000) Decl.     Delta      r     Elong.  Phase     V
2004 03 16    09 17.91   -09 24.7    0.022    1.012   141.9    37.3    17.4
2004 03 18    10 45.50   -05 32.4    0.034    1.028   162.3    17.1    17.7
2004 03 20    11 24.51   -03 29.5    0.049    1.044   170.7     8.9    18.2
2004 03 22    11 45.34   -02 20.6    0.064    1.060   174.6     5.1    18.7
2004 03 24    11 58.07   -01 37.7    0.080    1.077   176.2     3.5    19.1
2004 03 26    12 06.60   -01 09.0    0.096    1.093   176.3     3.3    19.5
2004 03 28    12 12.71   -00 48.8    0.112    1.110   175.6     3.9    19.9
2004 03 30    12 17.29   -00 34.1    0.129    1.127   174.5     4.9    20.3
2004 04 01    12 20.86   -00 23.4    0.146    1.144   173.2     6.0    20.7
2004 04 03    12 23.74   -00 15.6    0.163    1.162   171.8     7.1    21.0
2004 04 05    12 26.13   -00 10.0    0.181    1.179   170.3     8.3    21.3

Kyle E. Smalley              (C) Copyright 2004 MPC           M.P.E.C. 2004-F46

Read MPEC 2004-F45 Read MPEC 2004-F47


Our Web policy. Index to the CBAT/MPC/ICQ pages.


Valid HTML 4.01!